[[{"header":{"parameterUnit":"m.s-1","parameterCategory":1,"la1":30.2991,"la2":30.254,"lo1":-89.0895,"lo2":-89.0444,"dy":0.0017,"dx":0.0017,"nx":28,"ny":28,"refTime":"2025-06-05T03:00:00:Z","depth":0,"parameterNumber":2,"parameterNumberName":"U-component_of_WINDS"},"data":[0,0,0,0,0,0,0,0,0,0,0,0,0,0,0,0,0,0,0,0,0,0,0,0,0,0,0,0,0,0,0,0,0,0,0,0,0,0,0,0,0,0,0,0,0,0,0,0,0,0,0,0,0,0,0,0,0,0,-0.5989,-0.5989,0,-0.6043,-0.6044,-0.6044,-0.611,-0.6111,-0.6112,-0.6113,-0.6167,-0.6167,-0.6168,0,0,0,0,0,0,0,0,0,0,0,0,0,-0.594,-0.594,-0.5989,-0.5989,-0.599,-0.6043,-0.6044,-0.6044,-0.611,-0.6111,-0.6113,-0.6114,-0.6167,-0.6167,-0.6168,0,0,0,0,0,0,0,0,0,0,0,0,0,-0.5974,-0.594,-0.5989,-0.6029,-0.6033,-0.6043,-0.6044,-0.6045,-0.611,-0.6111,-0.6113,-0.6114,-0.6166,-0.6167,-0.6168,-0.6141,0,0,-0.617,-0.617,0,0,0,0,0,0,0,0,-0.5972,-0.5976,-0.6023,-0.6026,-0.6031,-0.6072,-0.6046,-0.6077,-0.6109,-0.6081,-0.6113,-0.6115,-0.6134,-0.6137,-0.6144,-0.6144,-0.6146,-0.617,-0.617,-0.6171,-0.6171,0,0,0,0,0,0,0,-0.5969,-0.5974,-0.601,-0.6023,-0.6028,-0.6044,-0.6051,-0.6052,-0.6098,-0.6083,-0.6088,-0.6094,-0.6136,-0.6143,-0.6146,-0.6147,-0.617,-0.6171,-0.6171,-0.6171,-0.6126,-0.6124,0,0,0,0,0,0,-0.5961,-0.5971,-0.6008,-0.6012,-0.6005,-0.6044,-0.6051,-0.6057,-0.6098,-0.6106,-0.6092,-0.6097,-0.6141,-0.6145,-0.6148,-0.6118,-0.6171,-0.6171,-0.6172,-0.6127,-0.6125,-0.6124,0,0,0,0,0,0,-0.596,-0.5964,-0.6006,-0.5993,-0.6,-0.6043,-0.6049,-0.6057,-0.6064,-0.6105,-0.6113,-0.6091,-0.6143,-0.6147,-0.6142,-0.6121,-0.6172,-0.6172,-0.6129,-0.6127,-0.6125,-0.6058,0,0,0,0,0,0,-0.5958,-0.5963,-0.5954,-0.5992,-0.6,-0.6,-0.6048,-0.6057,-0.6065,-0.6071,-0.6106,-0.6113,-0.6144,-0.6141,-0.6143,-0.6123,-0.6173,-0.6131,-0.6128,-0.6125,-0.6063,-0.6054,-0.6047,0,0,0,0,0,-0.5956,-0.5933,-0.5953,-0.5957,-0.5989,-0.5999,-0.6003,-0.604,-0.6063,-0.6054,-0.608,-0.6112,-0.6123,-0.614,-0.6143,-0.6122,-0.6133,-0.6129,-0.6126,-0.6066,-0.6056,-0.6047,0,0,0,0,0,0,-0.589,-0.5939,-0.5962,-0.595,-0.597,-0.601,-0.5999,-0.6028,-0.6041,-0.6046,-0.609,-0.6098,-0.6087,-0.6105,-0.6122,-0.6098,-0.6133,-0.6129,-0.6086,-0.6077,-0.6069,-0.6064,-0.6173,0,0,0,0,0,-0.5875,-0.5879,-0.5921,-0.5906,-0.5915,-0.5955,-0.5961,-0.5987,-0.6009,-0.6018,-0.6044,-0.6063,-0.6071,-0.6075,-0.6085,-0.6066,-0.6074,-0.6054,-0.6046,-0.6039,-0.6035,-0.6025,-0.6016,-0.6112,-0.6112,-0.6112,0,0,-0.5842,-0.5869,-0.5869,-0.5894,-0.5912,-0.5914,-0.5962,-0.5963,-0.5964,-0.6018,-0.6015,-0.6034,-0.6059,-0.6047,-0.6043,-0.6061,-0.601,-0.6034,-0.6028,-0.6028,-0.602,-0.6011,-0.6002,-0.6109,-0.611,-0.611,0,0,-0.5783,-0.5804,-0.5794,-0.5812,-0.5839,-0.5866,-0.5863,-0.5899,-0.5914,-0.5912,-0.5952,-0.5955,-0.5968,-0.5983,-0.5993,-0.5939,-0.5968,-0.5941,-0.5898,-0.5888,-0.588,-0.5874,-0.5853,-0.5845,-0.5938,-0.5937,-0.5937,0,-0.5738,-0.5744,-0.5785,-0.5783,-0.5792,-0.5842,-0.5831,-0.5846,-0.5875,-0.588,-0.59,-0.5917,-0.5937,-0.5928,-0.5915,-0.5922,-0.5919,-0.5937,-0.5878,-0.5872,-0.5867,-0.5847,-0.5839,-0.5934,-0.5934,-0.5935,-0.5935,0,-0.5687,-0.569,-0.5679,-0.5705,-0.5714,-0.5707,-0.5747,-0.575,-0.5776,-0.58,-0.5796,-0.5823,-0.5838,-0.5838,-0.5864,-0.5832,-0.5843,-0.587,-0.5906,-0.5853,-0.5835,-0.5828,-0.5929,-0.593,-0.5931,-0.5932,0,0,-0.5587,-0.5637,-0.5631,-0.5644,-0.5678,-0.568,-0.5676,-0.5691,-0.5692,-0.5711,-0.5707,-0.5717,-0.5742,-0.5753,-0.5781,-0.5772,-0.5725,-0.58,-0.5802,-0.5784,-0.5691,-0.5668,-0.5659,-0.5746,-0.5745,-0.5744,-0.5688,0,-0.5533,-0.5528,-0.5565,-0.555,-0.5552,-0.5599,-0.5595,-0.5615,-0.5638,-0.5643,-0.5668,-0.5673,-0.5707,-0.5714,-0.5707,-0.5732,-0.5707,-0.5737,-0.5741,-0.5741,-0.5731,-0.5651,-0.5627,-0.5573,-0.5682,-0.5681,-0.568,0,-0.5469,-0.5483,-0.5468,-0.5502,-0.5505,-0.55,-0.5517,-0.5522,-0.5545,-0.5562,-0.5573,-0.5605,-0.5602,-0.5637,-0.5633,-0.5652,-0.5656,-0.5669,-0.5668,-0.5668,-0.5706,-0.5646,-0.5558,-0.5548,-0.567,-0.5671,-0.5671,0,-0.5394,-0.5411,-0.5404,-0.5413,-0.5453,-0.5449,-0.5465,-0.549,-0.5496,-0.551,-0.5515,-0.5528,-0.5535,-0.5545,-0.5579,-0.5601,-0.5569,-0.5608,-0.5582,-0.5581,-0.5572,-0.5571,-0.548,-0.5577,-0.5577,-0.5578,-0.5578,0,-0.5329,-0.5318,-0.5371,-0.5366,-0.5355,-0.5397,-0.5384,-0.5405,-0.5426,-0.5426,-0.5468,-0.5466,-0.5513,-0.5516,-0.5543,-0.5534,-0.5537,-0.555,-0.5557,-0.5545,-0.5543,-0.5547,-0.5551,-0.5576,-0.5576,-0.5576,-0.5577,0,-0.5244,-0.528,-0.5275,-0.5313,-0.5322,-0.5311,-0.5344,-0.534,-0.5366,-0.5364,-0.5367,-0.5406,-0.5412,-0.5448,-0.5462,-0.548,-0.5461,-0.5476,-0.5453,-0.5457,-0.5428,-0.543,-0.5334,-0.5323,-0.5429,-0.5428,-0.5427,0,-0.5199,-0.5191,-0.5228,-0.5231,-0.5245,-0.525,-0.5257,-0.5298,-0.5303,-0.5328,-0.5322,-0.5331,-0.5341,-0.5348,-0.5377,-0.5388,-0.5403,-0.5369,-0.5405,-0.5393,-0.54,-0.5399,-0.5398,-0.536,-0.5359,-0.5358,-0.5357,0,-0.5114,-0.5132,-0.5141,-0.5155,-0.5162,-0.5175,-0.5191,-0.5191,-0.5236,-0.524,-0.5247,-0.5254,-0.5269,-0.5277,-0.5293,-0.5309,-0.5339,-0.5346,-0.534,-0.5327,-0.5313,-0.5318,-0.5429,-0.5347,-0.5348,-0.5349,-0.535,-0.535,-0.5047,-0.5041,-0.5066,-0.5074,-0.5091,-0.5104,-0.5102,-0.5128,-0.5134,-0.5149,-0.5174,-0.5176,-0.5199,-0.5223,-0.5237,-0.5239,-0.5257,-0.5249,-0.5247,-0.5244,-0.5237,-0.5314,-0.5242,-0.5243,-0.5243,-0.5243,-0.5244,0,-0.4963,-0.4981,-0.4988,-0.5009,-0.5014,-0.5044,-0.5063,-0.5065,-0.5068,-0.5086,-0.5095,-0.5102,-0.511,-0.514,-0.5151,-0.5147,-0.5162,-0.5149,-0.5148,-0.5151,-0.5221,-0.5224,-0.5137,-0.5137,-0.5137,-0.5137,-0.5137,-0.5137,-0.492,-0.4912,-0.4933,-0.4933,-0.4952,-0.4955,-0.4963,-0.4975,-0.499,-0.4996,-0.5003,-0.5023,-0.5046,-0.5059,-0.5067,-0.5076,-0.5077,-0.5059,-0.5072,-0.5136,-0.5146,-0.5156,-0.5159,-0.5059,-0.5059,-0.5001,-0.5001,-0.5]},{"header":{"parameterUnit":"m.s-1","parameterCategory":1,"la1":30.2991,"la2":30.254,"lo1":-89.0895,"lo2":-89.0444,"dy":0.0017,"dx":0.0017,"nx":28,"ny":28,"refTime":"2025-06-05T03:00:00:Z","depth":0,"parameterNumber":3,"parameterNumberName":"V-component_of_WINDS"},"data":[0,0,0,0,0,0,0,0,0,0,0,0,0,0,0,0,0,0,0,0,0,0,0,0,0,0,0,0,0,0,0,0,0,0,0,0,0,0,0,0,0,0,0,0,0,0,0,0,0,0,0,0,0,0,0,0,0,0,2.2487,2.2488,0,2.2576,2.2577,2.2578,2.2554,2.2552,2.2551,2.2549,2.2639,2.2643,2.2647,0,0,0,0,0,0,0,0,0,0,0,0,0,2.2294,2.2298,2.2487,2.2488,2.2489,2.2576,2.2577,2.2578,2.2554,2.2552,2.255,2.2548,2.2637,2.2642,2.2647,0,0,0,0,0,0,0,0,0,0,0,0,0,2.238,2.2299,2.2486,2.2487,2.2488,2.2575,2.2577,2.2578,2.2555,2.2552,2.255,2.2547,2.2636,2.2642,2.2648,2.2739,0,0,2.2666,2.2669,0,0,0,0,0,0,0,0,2.2375,2.2387,2.2486,2.2488,2.2489,2.2551,2.2542,2.2632,2.2556,2.253,2.2549,2.2546,2.2612,2.262,2.2642,2.2743,2.2747,2.2667,2.2671,2.2673,2.2675,0,0,0,0,0,0,0,2.2369,2.2383,2.2522,2.2488,2.2489,2.2483,2.2492,2.2559,2.2584,2.2532,2.253,2.2541,2.2612,2.2636,2.2644,2.2748,2.2667,2.2672,2.2676,2.2678,2.2927,2.293,0,0,0,0,0,0,2.2362,2.2378,2.2519,2.2524,2.2424,2.2489,2.2499,2.2534,2.2584,2.2589,2.2543,2.254,2.2627,2.2637,2.2647,2.2756,2.2673,2.2679,2.2682,2.2924,2.2928,2.2931,0,0,0,0,0,0,2.2358,2.2375,2.2515,2.2451,2.2468,2.2495,2.2534,2.2537,2.2561,2.2593,2.2597,2.2564,2.2626,2.2639,2.2716,2.2759,2.2682,2.2687,2.2921,2.2925,2.2929,2.2975,0,0,0,0,0,0,2.2353,2.2374,2.2409,2.2452,2.2472,2.2583,2.2537,2.2541,2.2572,2.2568,2.2613,2.2618,2.2624,2.2707,2.2722,2.2766,2.2692,2.2917,2.2923,2.2928,2.297,2.2981,2.299,0,0,0,0,0,2.2346,2.2418,2.2411,2.2428,2.2517,2.2586,2.2597,2.2604,2.2576,2.2611,2.2631,2.2616,2.2752,2.2715,2.2732,2.2778,2.2914,2.2921,2.2927,2.2966,2.2979,2.299,0,0,0,0,0,0,2.2379,2.2424,2.2416,2.2505,2.2542,2.2582,2.2626,2.2618,2.2663,2.2658,2.2664,2.2674,2.2753,2.2774,2.2732,2.2868,2.2829,2.2839,2.2852,2.2865,2.2875,2.2868,2.2697,0,0,0,0,0,2.2397,2.245,2.2486,2.2561,2.258,2.26,2.263,2.2633,2.2671,2.2686,2.2712,2.2749,2.28,2.2834,2.2883,2.2973,2.2982,2.3013,2.3023,2.3031,2.304,2.3089,2.3103,2.2953,2.2953,2.2953,0,0,2.2434,2.2465,2.2498,2.2568,2.2597,2.2651,2.2613,2.2672,2.2713,2.2695,2.277,2.279,2.2832,2.2916,2.2955,2.2936,2.3083,2.304,2.3046,2.305,2.3097,2.3111,2.3124,2.2957,2.2956,2.2956,0,0,2.2529,2.2558,2.2623,2.2653,2.2697,2.271,2.2726,2.2768,2.278,2.2855,2.2843,2.2891,2.2979,2.3009,2.3036,2.3143,2.313,2.3158,2.321,2.3257,2.3269,2.328,2.3317,2.333,2.3167,2.3167,2.3167,0,2.2569,2.2651,2.2657,2.2718,2.2748,2.2736,2.2801,2.283,2.2888,2.2909,2.2887,2.2997,2.3024,2.3115,2.3141,2.3164,2.3181,2.3153,2.3267,2.3278,2.3288,2.3323,2.3337,2.317,2.317,2.3169,2.3169,0,2.2698,2.2755,2.2802,2.2858,2.2894,2.2957,2.2972,2.3008,2.3007,2.3022,2.3098,2.3131,2.3186,2.3208,2.3207,2.3299,2.3285,2.3265,2.3225,2.3305,2.3338,2.3352,2.3174,2.3173,2.3172,2.3172,0,0,2.2816,2.2875,2.2892,2.2918,2.2966,2.3009,2.3071,2.3125,2.3155,2.3196,2.3247,2.3322,2.3304,2.3334,2.3337,2.3379,2.346,2.3353,2.3354,2.3371,2.3562,2.3576,2.3592,2.3452,2.3455,2.3457,2.3558,0,2.2914,2.3023,2.3031,2.3129,2.3181,2.317,2.3223,2.3258,2.3274,2.332,2.3338,2.339,2.3363,2.3381,2.3422,2.3441,2.3498,2.3434,2.35,2.3502,2.3489,2.3609,2.3625,2.3718,2.3571,2.3573,2.3575,0,2.3044,2.3088,2.3192,2.3232,2.3254,2.3302,2.3352,2.3397,2.3436,2.3444,2.3479,2.3476,2.3538,2.3497,2.3583,2.3539,2.3566,2.358,2.3584,2.359,2.3543,2.3617,2.3748,2.3762,2.3596,2.3594,2.3593,0,2.3119,2.3205,2.3277,2.3299,2.3348,2.3382,2.3404,2.3441,2.3473,2.3516,2.3537,2.3587,2.3614,2.3653,2.3663,2.3632,2.3749,2.3708,2.3757,2.3757,2.3782,2.378,2.3918,2.38,2.38,2.38,2.38,0,2.3228,2.3291,2.3312,2.3356,2.3427,2.3435,2.3505,2.3524,2.3557,2.3605,2.3598,2.3643,2.3654,2.3701,2.371,2.3779,2.3792,2.38,2.3801,2.38,2.3799,2.3818,2.3811,2.3804,2.3803,2.3802,2.3801,0,2.3323,2.3339,2.3418,2.3458,2.3469,2.352,2.3553,2.3596,2.3611,2.3672,2.3686,2.371,2.3765,2.3779,2.3845,2.385,2.3932,2.3928,2.3919,2.3919,2.3966,2.3961,2.412,2.4141,2.4011,2.4012,2.4013,0,2.3391,2.344,2.3485,2.3517,2.354,2.3591,2.3624,2.3633,2.3667,2.3715,2.3752,2.3807,2.385,2.3939,2.3961,2.4011,2.4007,2.406,2.4015,2.4012,2.4007,2.4004,2.4009,2.4068,2.4069,2.407,2.4071,0,2.351,2.3515,2.3563,2.3613,2.3652,2.3692,2.373,2.3756,2.3771,2.381,2.3866,2.39,2.3967,2.4021,2.4071,2.4093,2.4085,2.4085,2.4099,2.4098,2.4091,2.4095,2.3941,2.4082,2.4081,2.408,2.4079,2.4079,2.3593,2.3636,2.3674,2.3727,2.3756,2.3792,2.3834,2.3854,2.3902,2.3957,2.396,2.4021,2.4058,2.4125,2.415,2.4198,2.4182,2.4202,2.4207,2.4212,2.4215,2.4084,2.4207,2.4207,2.4206,2.4206,2.4206,0,2.3711,2.3735,2.3784,2.3837,2.3879,2.3867,2.3909,2.3944,2.3998,2.4034,2.4077,2.4142,2.4194,2.422,2.4272,2.4305,2.4302,2.4318,2.4315,2.432,2.4227,2.4209,2.4319,2.4319,2.4319,2.4319,2.4319,2.4319,2.3777,2.3848,2.3858,2.3944,2.3967,2.4027,2.4052,2.4085,2.4113,2.4185,2.4229,2.4246,2.4278,2.4332,2.4379,2.4385,2.4404,2.4422,2.4426,2.4338,2.4327,2.4316,2.4299,2.4426,2.4426,2.4515,2.4516,2.4517]}]]